Location: Eimen
(51.8766°N, 9.7806°E)
Time: 17:20:54
(UTC+00:00)

Cosmos 1709 Rocket - Pass Details

Date: 23 May 2024
Orbit: 948 x 1001 km, 82.9° (Epoch: 23 June)

Event Time Altitude Azimuth Distance (km) Brightness Sun altitude
Exits shadow 01:49:41 12° 202° (SSW) 2,612 5.6 -10.2°
Maximum altitude 01:55:35 66° 284° (WNW) 1,084 4.2 -9.7°
Drops below altitude 10° 02:01:58 10° 6° (N) 2,784 7.4 -9.1°
Sets 02:04:33 0° 10° (N) 3,739 8.2 -8.8°
